This is the latest recevied weather packets stored in our database for station/object WP3OF. If no packets are shown the sender has not sent any weather packets the latest 10 day(s).
| Time | Temp. | Humidity | Pressure | Rain* | Wind** | Luminosity | Snow |
|---|---|---|---|---|---|---|---|
| 1788636587 | 28.33° C | 84% | 1015.4 hPa | 0 mm | - | - | - |
| 1788636283 | 28.89° C | 84% | 1015.3 hPa | 0 mm | - | - | - |
| 1788635978 | 28.89° C | 84% | 1015.4 hPa | 0 mm | - | - | - |
| 1788635678 | 28.89° C | 84% | 1015.3 hPa | 0 mm | - | - | - |
| 1788635377 | 28.89° C | 84% | 1015.2 hPa | 0 mm | - | - | - |
| 1788635075 | 28.89° C | 83% | 1015.3 hPa | 0 mm | - | - | - |
| 1788634774 | 28.89° C | 83% | 1015.2 hPa | 0 mm | - | - | - |
| 1788634469 | 29.44° C | 83% | 1015.4 hPa | 0 mm | - | - | - |
| 1788634167 | 28.89° C | 82% | 1015.6 hPa | 0 mm | - | - | - |
| 1788633863 | 28.89° C | 81% | 1015.3 hPa | 0 mm | - | - | - |
| 1788633561 | 29.44° C | 81% | 1015.3 hPa | 0 mm | - | - | - |
| 1788633256 | 30° C | 80% | 1015.2 hPa | 0 mm | - | - | - |
| 1788632951 | 30° C | 80% | 1015.3 hPa | 0 mm | - | - | - |
| 1788632650 | 29.44° C | 80% | 1015.6 hPa | 0 mm | - | - | - |
| 1788632347 | 29.44° C | 80% | 1015.7 hPa | 0 mm | - | - | - |
| 1788632046 | 29.44° C | 79% | 1015.6 hPa | 0 mm | - | - | - |
| 1788631745 | 29.44° C | 79% | 1015.6 hPa | 0 mm | - | - | - |
| 1788631449 | 29.44° C | 80% | 1015.6 hPa | 0 mm | - | - | - |
| 1788631135 | 29.44° C | 81% | 1015.6 hPa | 0 mm | - | - | - |
| 1788630829 | 29.44° C | 81% | 1015.8 hPa | 0 mm | - | - | - |
| 1788630524 | 28.89° C | 80% | 1016.1 hPa | 0 mm | - | - | - |
| 1788630220 | 28.89° C | 80% | 1015.9 hPa | 0 mm | - | - | - |
| 1788629916 | 28.89° C | 82% | 1015.5 hPa | 0 mm | - | - | - |
| 1788629612 | 29.44° C | 80% | 1015.9 hPa | 0 mm | - | - | - |
| 1788629312 | 29.44° C | 80% | 1015.8 hPa | 0 mm | - | - | - |
* Rain latest hour (hover to see other rain measurements)
** Current wind speed in m/s (hover to see current wind gust speed)